Klamath Falls, OR

6:13 AM PDT on May 30, 2017 (GMT -0700)
Klamath Falls International

Weather History for KLMT - November, 2013

Change the Weather History Date:

Tuesday, November 12, 2013

  Actual Average Record
Temperature  
Mean Temperature 57 °F 36 °F  
Max Temperature 64 °F 47 °F 67 °F (1990)
Min Temperature 49 °F 26 °F -3 °F (1985)
Degree Days  
Heating Degree Days 8 29  
Month to date heating degree days 283 318  
Since 1 July heating degree days 1249 1234  
Cooling Degree Days 0 0  
Month to date cooling degree days 0 0  
Year to date cooling degree days 285 169  
Growing Degree Days 6 (Base 50)    
Moisture  
Dew Point 29 °F    
Average Humidity 43    
Maximum Humidity 77    
Minimum Humidity 22    
Precipitation  
Precipitation T in 0.07 in 0.80 in (1928)
Month to date precipitation 0.08 0.81  
Year to date precipitation 4.99 12.13  
Sea Level Pressure  
Sea Level Pressure 30.26 in    
Wind  
Wind Speed 8 mph (South)    
Max Wind Speed 20 mph    
Max Gust Speed 25 mph    
Visibility 10 miles    
Events Rain    
T = Trace of Precipitation, MM = Missing Value Source: NWS Daily Summary

Daily Weather History Graph

Daily Weather History Graph

Search for Another Location

Airport or City:

Trip Planner

Search our weather history database for the weather conditions in past years. The results will help you decide how hot, cold, wet, or windy it might be!

Date:

Astronomy

Nov. 12, 2013 Rise Set
Actual Time 6:53 AM PST 4:47 PM PST
Civil Twilight 6:24 AM PST 5:17 PM PST
Nautical Twilight 5:50 AM PST 5:51 PM PST
Astronomical Twilight 5:17 AM PST 6:24 PM PST
Moon 2:09 PM PST (11/12) 1:44 AM PST (11/12)
Length of Visible Light 10h 53m
Length of Day
9h 53m
Waxing Gibbous, 77% of the Moon is Illuminated
Nov 12
Waxing Gibbous
Nov 17
Full
Nov 25
Last Quarter
Dec 2
New
Dec 9
First Quarter

Hourly Weather History & Observations

Time (PST) Temp. Dew Point Humidity Pressure Visibility Wind Dir Wind Speed Gust Speed Precip Events Conditions
12:53 AM 52.0 °F 21.9 °F 31% 30.14 in 10.0 mi SE 6.9 mph - N/A   Clear
1:53 AM 54.0 °F 19.9 °F 26% 30.14 in 10.0 mi SSE 5.8 mph - N/A   Mostly Cloudy
2:53 AM 52.0 °F 21.0 °F 30% 30.16 in 10.0 mi SSE 9.2 mph - N/A   Overcast
3:53 AM 51.1 °F 21.0 °F 31% 30.18 in 10.0 mi South 9.2 mph - N/A   Mostly Cloudy
4:53 AM 51.1 °F 21.9 °F 32% 30.22 in 10.0 mi SSE 5.8 mph - N/A   Overcast
5:53 AM 53.1 °F 21.9 °F 30% 30.22 in 10.0 mi SSE 12.7 mph - 0.00 in   Overcast
6:53 AM 52.0 °F 21.9 °F 31% 30.23 in 10.0 mi SSE 11.5 mph - N/A   Overcast
7:53 AM 53.1 °F 21.0 °F 29% 30.27 in 10.0 mi SSE 13.8 mph - N/A   Overcast
8:53 AM 55.9 °F 21.0 °F 26% 30.26 in 10.0 mi SSE 15.0 mph - N/A   Overcast
9:53 AM 59.0 °F 21.9 °F 24% 30.27 in 10.0 mi SSE 13.8 mph - N/A   Overcast
10:53 AM 61.0 °F 21.9 °F 22% 30.27 in 10.0 mi SSE 9.2 mph - N/A   Overcast
11:53 AM 61.0 °F 24.1 °F 24% 30.25 in 10.0 mi SE 8.1 mph - N/A   Overcast
12:53 PM 63.0 °F 26.1 °F 25% 30.24 in 10.0 mi Variable 5.8 mph - N/A   Overcast
1:15 PM 55.4 °F 30.2 °F 38% 30.31 in 10.0 mi NNW 18.4 mph - N/A   Overcast
1:53 PM 55.9 °F 32.0 °F 40% 30.25 in 10.0 mi NNW 15.0 mph - N/A   Overcast
2:53 PM 57.9 °F 28.0 °F 32% 30.25 in 10.0 mi NNW 10.4 mph - N/A   Mostly Cloudy
3:53 PM 54.0 °F 35.1 °F 49% 30.27 in 10.0 mi NNW 10.4 mph - N/A   Overcast
4:53 PM 53.1 °F 36.0 °F 52% 30.28 in 10.0 mi NNW 10.4 mph - N/A   Overcast
5:53 PM 51.1 °F 41.0 °F 68% 30.29 in 10.0 mi NNW 6.9 mph - 0.00 in Rain Light Rain
6:53 PM 51.1 °F 43.0 °F 74% 30.30 in 10.0 mi NNW 5.8 mph - 0.00 in Rain Light Rain
7:53 PM 51.1 °F 41.0 °F 68% 30.32 in 10.0 mi Calm Calm - 0.00 in Rain Light Rain
8:53 PM 48.9 °F 41.0 °F 74% 30.32 in 10.0 mi NW 3.5 mph - 0.00 in Rain Light Rain
9:53 PM 50.0 °F 41.0 °F 71% 30.32 in 10.0 mi WNW 3.5 mph - 0.00 in Rain Light Rain
10:53 PM 48.9 °F 39.9 °F 71% 30.32 in 10.0 mi Calm Calm - 0.00 in   Overcast
11:53 PM 48.9 °F 41.0 °F 74% 30.31 in 10.0 mi Calm Calm - N/A   Overcast